Regional Weather Roundup
Issued by NWS Grand Forks, ND

Home | Current Version | Previous Version | Text Only | Print | Product List | Glossary Off
Versions: 1 2 3 4 5 6 7 8 9 10 11 12 13 14 15 16 17 18 19 20 21 22 23 24 25 26 27 28 29 30 31 32 33 34 35 36 37 38 39 40 41 42 43 44 45 46 47 48 49 50

000
ASUS43 KFGF 282010
RWRFGF
PRAIRIE TO PINES  WEATHER ROUNDUP
NATIONAL WEATHER SERVICE EASTERN NORTH DAKOTA/GRAND FORKS ND
300 PM CDT TUE MAR 28 2017

 **SATELLITE DATA USED TO AUGMENT SKY COVER AT AUTOMATED STATIONS**
 *****  WEATHER ACROSS EASTERN NORTH DAKOTA  *****

CITY           SKY/WX    TMP DP  RH WIND       PRES   REMARKS
GRAND FORKS    PTSUNNY   53  41  63 N5        30.20S
GRAND FRKS AFB FAIR      51  39  63 NE7       30.20S
DEVILS LAKE    FAIR      49  37  63 SE12      30.18F
FARGO          FAIR      57  39  51 CALM      30.17F
WAHPETON ARPT    N/A     54  37  54 N5        30.16F
$$

 ***** WEATHER ACROSS CENTRAL AND WESTERN NORTH DAKOTA  *****

CITY           SKY/WX    TMP DP  RH WIND       PRES   REMARKS
BISMARCK       FAIR      61  35  37 S13       30.11F
MINOT          PTSUNNY   50  41  71 E12       30.10F
JAMESTOWN      FAIR      54  43  66 E10       30.15F
MINOT AFB      CLOUDY    45  41  87 E9        30.10F
GARRISON         N/A     53  40  61 S7        30.09F
WILLISTON      FAIR      55  41  59 S7        30.07F
DICKINSON      PTSUNNY   60  30  32 S13       30.03F
HETTINGER      FAIR      58  40  51 SE12G22   30.05F
$$

 *****  OTHER AIRPORT OBSERVATIONS IN OUR AREA  *****

CITY           SKY/WX    TMP DP  RH WIND       PRES   REMARKS
WALHALLA       NOT AVBL
GRAFTON AIRPOR FAIR      45  41  87 N10       30.22F
VALLEY CITY AR FAIR      54  41  62 E7        30.18F
CANDO          NOT AVBL
CAVALIER APRT  FAIR      39  36  87 N10       30.22F
GWINNER        CLEAR     57  41  54 MISG      30.15F
SHEYENNE NWR     N/A     58  38  48 NE6       29.95S
ROLLA          CLOUDY    39  39 100 NE9       30.18F
 ***** THE ABOVE OBSERVATIONS ARE NON NWS ARE NOT QUALITY
       CONTROLLED AND MAY MIS-REPORT RAIN FOR SNOW...
$$

  *****  WEATHER ACROSS NORTHERN MINNESOTA  *****

CITY           SKY/WX    TMP DP  RH WIND       PRES   REMARKS
FLAG ISLAND    FAIR      43  25  49 N9        30.21F
WARROAD        FAIR      43  34  70 E8        30.22S
ROSEAU         FAIR      52  37  58 SE8       30.20S
HALLOCK        CLOUDY    46  41  81 NW10      30.21F
THF RVR FALLS  PTSUNNY   53  33  46 N3        30.20S
BAUDETTE       FAIR      52  31  44 NW13      30.19S
WASKISH        FAIR      54  36  50 W7        30.17S
CROOKSTON      FAIR      54  45  71 N6        30.19F
GREENBUSH NDAW   N/A     50  36  57 NE3         N/A
$$
  *****  WEATHER ACROSS CENTRAL AND WEST MINNESOTA  *****

CITY           SKY/WX    TMP DP  RH WIND       PRES   REMARKS
FOSSTON        FAIR      57  41  54 N5        30.18R
BEMIDJI        FAIR      57  31  36 N3        30.16S
PARK RAPIDS    FAIR      60  28  29 VRB3      30.14S
ELBOW LAKE     FAIR      56  40  53 NW3       30.16S
WADENA         FAIR      61  34  36 CALM      30.14S
DETROIT LAKES  FAIR      57  34  41 CALM      30.16F
MOORHEAD       FAIR      54  41  62 NW3       30.18F
FERGUS FALLS   FAIR      57  41  54 W5        30.19S
MORRIS MN      FAIR      63  37  39 NE6       30.13F
STAPLES        FAIR      61  25  25 W5        30.14S
$$
  *****  WEATHER ELSEWHERE ACROSS MINNESOTA  *****

CITY           SKY/WX    TMP DP  RH WIND       PRES   REMARKS
DULUTH         FAIR      58  29  33 VRB3      30.14F
INTRNTL FALLS  FAIR      51  29  42 NE6       30.18S
ELY            FAIR      55  25  30 CALM      30.15F
CLOQUET        FAIR      61  21  21 N7        30.14S
WHEATON        FAIR      55  37  50 N3        30.17F
BRAINERD       FAIR      61  31  32 VRB5      30.15S
HIBBING        FAIR      56  30  37 N6        30.14F
ALEXANDRIA     FAIR      61  34  36 N5        30.14F
SAINT CLOUD    FAIR      60  28  29 VRB3      30.15F
MINNEAPOLIS    FAIR      62  31  31 CALM      30.14F
$$

  *****  WEATHER ACROSS SOUTH DAKOTA  *****

CITY           SKY/WX    TMP DP  RH WIND       PRES   REMARKS
SIOUX FALLS    CLOUDY    62  38  40 E10       30.08F
BROOKINGS      FAIR      57  37  47 E10       30.10F
WATERTOWN      FAIR      56  36  47 E8        30.12F
HURON          FAIR      58  38  47 E9        30.10F
SISSETON         N/A     58  39  49 VRB7      30.14F
ABERDEEN       PTSUNNY   58  35  42 CALM      30.13F
MITCHELL       FAIR      60  36  40 E10       30.09F
PIERRE         FAIR      55  42  61 SE10      30.06F
MOBRIDGE       FAIR      60  36  40 S12       30.06F
RAPID CITY     LGT RAIN  43  40  89 N5        30.05R
$$

  *****  SOME WEATHER IN NEARBY STATES *****

CITY           SKY/WX    TMP DP  RH WIND       PRES   REMARKS
GLASGOW MT     FAIR      53  35  50 VRB3      30.06F
GREAT FALLS MT PTSUNNY   50  21  32 W21       30.07F
CHEYENNE WY    CLOUDY    41  38  89 N16G26    29.90S
SCOTTSBLUFF NE LGT RAIN  45  43  93 E10       29.95R FOG
OMAHA NE       CLOUDY    50  41  71 E12       30.09F
DES MOINES IA  CLOUDY    51  42  71 NE8       30.10F
DAVENPORT IA   CLOUDY    50  42  74 NE8       30.14S
CHICAGO IL     PTSUNNY   50  38  63 NE12      30.13S
EAU CLAIRE WI  FAIR      60  31  33 CALM      30.13F
LA CROSSE WI   FAIR      58  40  51 W10       30.14F
$$

  *****  SOME NATIONAL WEATHER *****

CITY           SKY/WX    TMP DP  RH WIND       PRES   REMARKS
LA GUARDIA NY  CLOUDY    42  39  89 NE18      29.88F
RALEIGH NC     FAIR      73  61  65 W5        29.87F
ATLANTA GA     PTSUNNY   80  57  45 W9        29.95F
NEW ORLEANS LA FAIR      82  65  56 S12       29.96F
OKLAHOMA CITY  CLOUDY    63  54  72 SE20      29.81F
ALBUQUERQUE NM CLOUDY    52  34  50 NW5       29.77F THUNDER
SALT LAKE CITY FAIR      51  32  48 NW17G25   30.13S
LOS ANGELES CA FAIR      73  42  32 SW12G17   30.02F
BOISE ID       FAIR      52  29  41 NW15      30.27F
SEATTLE WA     CLOUDY    50  43  77 S18G24    30.21S
$$

*** WEATHER ACROSS MANITOBA...SASKATCHEWAN AND ONTARIO ***
                ***ONTARIO***

CITY           SKY/WX    TMP DP  RH WIND       PRES   REMARKS
GERALDTON      PTSUNNY   36  19  51 N7        30.22S
THUNDER BAY    PTSUNNY   50  30  46 E10       30.19R
SIOUX LOOKOUT  PTSUNNY   39  19  45 N6        30.24S
TORONTO        PTSUNNY   45  37  76 N14       30.00R
BIG TROUT LK   SUNNY     28  16  59 NW9       30.36S WCI  20
PICKLE LAKE    PTSUNNY   32  16  51 VRB2      30.28S
DRYDEN         SUNNY     41  21  45 E5        30.22F
KENORA         MOSUNNY   45  23  42 N8        30.21F
$$
                *** MANITOBA***

CITY           SKY/WX    TMP DP  RH WIND       PRES   REMARKS
BRANDON        FLURRIES  32  27  80 E15       30.21F WCI  22
DAUPHIN        PTSUNNY   36  27  69 E10       30.24F
ISLAND LAKE    MOSUNNY   28  16  59 SE8       30.36F WCI  20
PILOT MOUND      N/A     37  32  81 E8          N/A
THE PAS        MOSUNNY   32  16  51 SE17      30.26F WCI  21
THOMPSON       PTSUNNY   25  12  58 E5        30.35F WCI  19
WINNIPEG       PTSUNNY   39  30  70 NE9       30.24F
LYNN LAKE      SUNNY     30  18  59 S10       30.25F WCI  21
CHURCHILL      MOSUNNY   12  10  92 VRB2      30.48R
GILLAM         MOSUNNY   25  12  58 SE3       30.42S
$$
                ***SASKATCHEWAN***

CITY           SKY/WX    TMP DP  RH WIND       PRES   REMARKS
ESTEVAN        CLOUDY    37  36  93 SE10      30.11S
KINDERSLEY     MOSUNNY   52  36  54 SW7       29.92F
LLOYDMINSTER   CLOUDY    39  39 100 SE13      29.94S
PRINCE ALBERT  CLOUDY    37  32  81 SE12      30.09F
REGINA         CLOUDY    39  36  87 SE14      30.08F
YORKTON        CLOUDY    37  30  75 SE12      30.15F
N. BATTLEFORD  CLOUDY    39  39 100 SE17G23   30.00F
LA RONGE       CLOUDY    37  27  65 SE15G21   30.11F
SASKATOON      CLOUDY    43  36  75 SE13G20   30.02F
SWIFT CURRENT  SUNNY     57  30  35 SW13G20   29.95F
$$
NOTE: THESE ARE AUTOMATED STATIONS WITH LIMITED QUALITY CONTROL
      "FAIR" INDICATES FEW OR NO CLOUDS BELOW 12,000 FEET WITH NO
      SIGNIFICANT WEATHER AND/OR OBSTRUCTIONS TO VISIBILITY.
      SKY/WX - SKY CONDITION AND SIGNIFICANT WEATHER.
      TMP - AIR TEMPERATURE.    DP   - DEWPOINT TEMPERATURE.
      RH  - RELATIVE HUMIDITY.  PRES - PRESSURE.
      HX  - HEAT INDEX.         WCI  - WIND CHILL INDEX.
$




USA.gov is the U.S. government's official web portal to all federal, state and local government web resources and services.